Location: La Pernelle
(49.6188°N, 1.2999°W)
Time: 08:03:17
(UTC+00:00)

Cosmos 1441 Rocket - Pass Details

Date: 12 June 2021
Orbit: 495 x 539 km, 81.1° (Epoch: 01 August)

Event Time Altitude Azimuth Distance (km) Brightness Sun altitude
Exits shadow 23:51:32 27° 130° (SE) 1,037 4.3 -17.1°
Maximum altitude 23:52:44 33° 94° (E) 895 4.3 -17.1°
Drops below altitude 10° 23:56:15 10° 29° (NNE) 1,765 6.8 -17.1°
Sets 23:58:30 0° 20° (NNE) 2,651 8.1 -17.2°
